Location: Unspecified
(0.0000°N, 0.0000°E)
Time: 15:48:32
(UTC+00:00)

DRAGON ENDURANCE 4 - Visible Passes

Search period start: 13 May 2025 00:00
Search period end: 23 May 2025 00:00
Orbit: 416 x 420 km, 51.6° (Epoch: 12 May)

Date Brightness Start Highest point End Pass type
(mag) Time Alt. Az. Time Alt. Az. Time Alt. Az.
13 May ? 03:40:55 11° ENE 03:40:55 11° ENE 03:41:30 10° E visible
13 May ? 05:14:06 10° WNW 05:16:39 21° SW 05:19:15 10° S visible
14 May ? 04:31:15 16° SSE 04:31:15 16° SSE 04:32:01 10° SSE visible
